Time,TemperatureF,DewpointF,PressureIn,WindDirection,WindDirectionDegrees,WindSpeedMPH,WindSpeedGustMPH,Humidity,HourlyPrecipIn,Conditions,Clouds,dailyrainin,SoftwareType,DateUTC
2013-05-18 00:03:00,67.6,61.2,29.86,ESE,108,0.0,4.0,80,0.00,,,0.00,Wunderground v.1.15,2013-05-18 05:03:00,
2013-05-18 00:09:00,67.4,61.0,29.86,ESE,108,0.0,4.0,80,0.00,,,0.00,Wunderground v.1.15,2013-05-18 05:09:00,
2013-05-18 00:15:00,67.2,61.2,29.86,ESE,108,0.0,4.0,81,0.00,,,0.00,Wunderground v.1.15,2013-05-18 05:15:00,
2013-05-18 00:21:00,67.0,61.0,29.86,ESE,107,0.0,4.0,81,0.00,,,0.00,Wunderground v.1.15,2013-05-18 05:21:00,
2013-05-18 00:27:00,66.7,61.0,29.86,ESE,107,0.0,4.0,82,0.00,,,0.00,Wunderground v.1.15,2013-05-18 05:27:00,
2013-05-18 00:33:00,66.4,60.7,29.86,ESE,108,0.0,4.0,82,0.00,,,0.00,Wunderground v.1.15,2013-05-18 05:33:00,
2013-05-18 00:39:00,66.1,60.8,29.86,ESE,108,0.0,4.0,83,0.00,,,0.00,Wunderground v.1.15,2013-05-18 05:39:00,
2013-05-18 00:45:00,65.9,60.9,29.86,ESE,108,0.0,4.0,84,0.00,,,0.00,Wunderground v.1.15,2013-05-18 05:45:00,
2013-05-18 00:50:00,65.7,60.7,29.86,ESE,107,0.0,4.0,84,0.00,,,0.00,Wunderground v.1.15,2013-05-18 05:50:00,
2013-05-18 00:56:00,65.6,60.6,29.86,ESE,107,0.0,4.0,84,0.00,,,0.00,Wunderground v.1.15,2013-05-18 05:56:00,
2013-05-18 01:02:00,65.5,60.9,29.85,ESE,107,0.0,4.0,85,0.00,,,0.00,Wunderground v.1.15,2013-05-18 06:02:00,
2013-05-18 01:08:00,65.5,60.9,29.85,ESE,108,0.0,4.0,85,0.00,,,0.00,Wunderground v.1.15,2013-05-18 06:08:00,
2013-05-18 01:13:00,65.6,61.0,29.85,ESE,108,0.0,4.0,85,0.00,,,0.00,Wunderground v.1.15,2013-05-18 06:13:00,
2013-05-18 01:19:00,65.6,61.0,29.85,ESE,108,0.0,4.0,85,0.00,,,0.00,Wunderground v.1.15,2013-05-18 06:19:00,
2013-05-18 01:25:00,65.6,61.0,29.85,ESE,108,0.0,4.0,85,0.00,,,0.00,Wunderground v.1.15,2013-05-18 06:25:00,
2013-05-18 01:31:00,65.6,61.0,29.85,ESE,108,0.0,4.0,85,0.00,,,0.00,Wunderground v.1.15,2013-05-18 06:31:00,
2013-05-18 01:36:00,65.8,61.2,29.85,ESE,108,0.0,4.0,85,0.00,,,0.00,Wunderground v.1.15,2013-05-18 06:36:00,
2013-05-18 01:42:00,65.8,61.2,29.86,ESE,108,0.0,4.0,85,0.00,,,0.00,Wunderground v.1.15,2013-05-18 06:42:00,
2013-05-18 01:48:00,65.9,61.3,29.85,ESE,108,0.0,4.0,85,0.00,,,0.00,Wunderground v.1.15,2013-05-18 06:48:00,
2013-05-18 01:53:00,65.8,61.2,29.85,ESE,107,0.0,4.0,85,0.00,,,0.00,Wunderground v.1.15,2013-05-18 06:53:00,
2013-05-18 01:59:00,65.7,61.1,29.85,ESE,108,0.0,4.0,85,0.00,,,0.00,Wunderground v.1.15,2013-05-18 06:59:00,
2013-05-18 02:05:00,65.6,61.0,29.85,ESE,108,0.0,4.0,85,0.00,,,0.00,Wunderground v.1.15,2013-05-18 07:05:00,
2013-05-18 02:10:00,65.5,60.9,29.85,ESE,107,0.0,4.0,85,0.00,,,0.00,Wunderground v.1.15,2013-05-18 07:10:00,
2013-05-18 02:16:00,65.4,61.1,29.85,ESE,107,0.0,4.0,86,0.00,,,0.00,Wunderground v.1.15,2013-05-18 07:16:00,
2013-05-18 02:22:00,65.3,61.0,29.85,ESE,107,1.0,4.0,86,0.00,,,0.00,Wunderground v.1.15,2013-05-18 07:22:00,
2013-05-18 02:28:00,65.4,61.1,29.85,ESE,107,2.0,4.0,86,0.00,,,0.00,Wunderground v.1.15,2013-05-18 07:28:00,
2013-05-18 02:33:00,65.3,61.0,29.85,ESE,107,1.0,4.0,86,0.00,,,0.00,Wunderground v.1.15,2013-05-18 07:33:00,
2013-05-18 02:39:00,65.2,60.9,29.85,ESE,107,0.0,4.0,86,0.00,,,0.00,Wunderground v.1.15,2013-05-18 07:39:00,
2013-05-18 02:45:00,65.1,60.8,29.85,ESE,107,0.0,4.0,86,0.00,,,0.00,Wunderground v.1.15,2013-05-18 07:45:00,
2013-05-18 02:51:00,65.0,61.0,29.85,ESE,107,0.0,4.0,87,0.00,,,0.00,Wunderground v.1.15,2013-05-18 07:51:00,
2013-05-18 02:56:00,64.9,60.9,29.85,ESE,107,0.0,4.0,87,0.00,,,0.00,Wunderground v.1.15,2013-05-18 07:56:00,
2013-05-18 03:02:00,64.7,60.7,29.85,ESE,108,0.0,4.0,87,0.00,,,0.00,Wunderground v.1.15,2013-05-18 08:02:00,
2013-05-18 03:08:00,64.5,60.5,29.84,ESE,107,0.0,4.0,87,0.00,,,0.00,Wunderground v.1.15,2013-05-18 08:08:00,
2013-05-18 03:13:00,64.3,60.3,29.84,ESE,108,0.0,4.0,87,0.00,,,0.00,Wunderground v.1.15,2013-05-18 08:13:00,
2013-05-18 03:19:00,64.1,60.5,29.84,ESE,107,0.0,4.0,88,0.00,,,0.00,Wunderground v.1.15,2013-05-18 08:19:00,
2013-05-18 03:25:00,64.0,60.4,29.85,ESE,108,0.0,4.0,88,0.00,,,0.00,Wunderground v.1.15,2013-05-18 08:25:00,
2013-05-18 03:30:00,63.9,60.6,29.85,ESE,108,0.0,4.0,89,0.00,,,0.00,Wunderground v.1.15,2013-05-18 08:30:00,
2013-05-18 03:36:00,63.9,60.6,29.85,ESE,107,1.0,4.0,89,0.00,,,0.00,Wunderground v.1.15,2013-05-18 08:36:00,
2013-05-18 03:41:00,63.9,60.6,29.84,ESE,108,1.0,4.0,89,0.00,,,0.00,Wunderground v.1.15,2013-05-18 08:41:00,
2013-05-18 03:47:00,63.9,60.6,29.84,ESE,107,1.0,4.0,89,0.00,,,0.00,Wunderground v.1.15,2013-05-18 08:47:00,
2013-05-18 03:53:00,63.8,60.5,29.84,ESE,107,0.0,4.0,89,0.00,,,0.00,Wunderground v.1.15,2013-05-18 08:53:00,
2013-05-18 03:59:00,63.7,60.4,29.84,ESE,107,0.0,4.0,89,0.00,,,0.00,Wunderground v.1.15,2013-05-18 08:59:00,
2013-05-18 04:04:00,63.6,60.3,29.84,ESE,108,1.0,4.0,89,0.00,,,0.00,Wunderground v.1.15,2013-05-18 09:04:00,
2013-05-18 04:10:00,63.5,60.2,29.84,ESE,108,1.0,1.0,89,0.00,,,0.00,Wunderground v.1.15,2013-05-18 09:10:00,
2013-05-18 04:16:00,63.4,60.1,29.85,ESE,108,0.0,4.0,89,0.00,,,0.00,Wunderground v.1.15,2013-05-18 09:16:00,
2013-05-18 04:22:00,63.2,59.9,29.85,ESE,108,0.0,4.0,89,0.00,,,0.00,Wunderground v.1.15,2013-05-18 09:22:00,
2013-05-18 04:27:00,63.1,59.8,29.85,ESE,108,0.0,4.0,89,0.00,,,0.00,Wunderground v.1.15,2013-05-18 09:27:00,
2013-05-18 04:33:00,62.9,59.9,29.85,ESE,108,0.0,4.0,90,0.00,,,0.00,Wunderground v.1.15,2013-05-18 09:33:00,
2013-05-18 04:39:00,62.8,59.8,29.85,ESE,108,0.0,4.0,90,0.00,,,0.00,Wunderground v.1.15,2013-05-18 09:39:00,
2013-05-18 04:45:00,62.5,59.5,29.85,ESE,108,0.0,4.0,90,0.00,,,0.00,Wunderground v.1.15,2013-05-18 09:45:00,
2013-05-18 04:51:00,62.3,59.3,29.85,ESE,108,0.0,4.0,90,0.00,,,0.00,Wunderground v.1.15,2013-05-18 09:51:00,
2013-05-18 04:57:00,62.3,59.6,29.85,ESE,108,0.0,4.0,91,0.00,,,0.00,Wunderground v.1.15,2013-05-18 09:57:00,
2013-05-18 05:03:00,62.2,59.5,29.84,ESE,108,0.0,4.0,91,0.00,,,0.00,Wunderground v.1.15,2013-05-18 10:03:00,
2013-05-18 05:08:00,62.2,59.5,29.84,ESE,107,0.0,4.0,91,0.00,,,0.00,Wunderground v.1.15,2013-05-18 10:08:00,
2013-05-18 05:14:00,62.2,59.8,29.84,ESE,108,0.0,4.0,92,0.00,,,0.00,Wunderground v.1.15,2013-05-18 10:14:00,
2013-05-18 05:19:00,62.3,59.9,29.85,ESE,108,1.0,4.0,92,0.00,,,0.00,Wunderground v.1.15,2013-05-18 10:19:00,
2013-05-18 05:25:00,62.3,59.9,29.85,ESE,108,0.0,4.0,92,0.00,,,0.00,Wunderground v.1.15,2013-05-18 10:25:00,
2013-05-18 05:30:00,62.3,59.9,29.85,ESE,108,0.0,4.0,92,0.00,,,0.00,Wunderground v.1.15,2013-05-18 10:30:00,
2013-05-18 05:36:00,62.1,59.7,29.85,ESE,107,0.0,4.0,92,0.00,,,0.00,Wunderground v.1.15,2013-05-18 10:36:00,
2013-05-18 05:42:00,62.0,59.6,29.85,ESE,108,0.0,4.0,92,0.00,,,0.00,Wunderground v.1.15,2013-05-18 10:42:00,
2013-05-18 05:48:00,62.0,59.6,29.85,ESE,108,0.0,4.0,92,0.00,,,0.00,Wunderground v.1.15,2013-05-18 10:48:00,
2013-05-18 05:54:00,61.9,59.5,29.85,ESE,108,0.0,4.0,92,0.00,,,0.00,Wunderground v.1.15,2013-05-18 10:54:00,
2013-05-18 06:00:00,62.0,59.6,29.85,ESE,108,0.0,4.0,92,0.00,,,0.00,Wunderground v.1.15,2013-05-18 11:00:00,
2013-05-18 06:06:00,62.0,59.6,29.85,ESE,108,0.0,4.0,92,0.00,,,0.00,Wunderground v.1.15,2013-05-18 11:06:00,
2013-05-18 06:11:00,62.0,59.6,29.85,ESE,107,0.0,4.0,92,0.00,,,0.00,Wunderground v.1.15,2013-05-18 11:11:00,
2013-05-18 06:17:00,62.0,59.6,29.85,ESE,107,0.0,4.0,92,0.00,,,0.00,Wunderground v.1.15,2013-05-18 11:17:00,
2013-05-18 06:22:00,62.1,59.7,29.85,ESE,108,0.0,4.0,92,0.00,,,0.00,Wunderground v.1.15,2013-05-18 11:22:00,
2013-05-18 06:28:00,62.2,59.8,29.86,ESE,108,0.0,4.0,92,0.00,,,0.00,Wunderground v.1.15,2013-05-18 11:28:00,
2013-05-18 06:34:00,62.2,59.8,29.85,ESE,108,0.0,4.0,92,0.00,,,0.00,Wunderground v.1.15,2013-05-18 11:34:00,
2013-05-18 06:40:00,62.4,60.3,29.86,ESE,107,0.0,4.0,93,0.00,,,0.00,Wunderground v.1.15,2013-05-18 11:40:00,
2013-05-18 06:45:00,62.6,60.5,29.86,ESE,107,0.0,4.0,93,0.00,,,0.00,Wunderground v.1.15,2013-05-18 11:45:00,
2013-05-18 06:51:00,62.7,60.3,29.86,ESE,107,0.0,4.0,92,0.00,,,0.00,Wunderground v.1.15,2013-05-18 11:51:00,
2013-05-18 06:57:00,62.9,60.5,29.86,ESE,108,0.0,4.0,92,0.00,,,0.00,Wunderground v.1.15,2013-05-18 11:57:00,
2013-05-18 07:02:00,63.0,60.6,29.86,ESE,108,0.0,4.0,92,0.00,,,0.00,Wunderground v.1.15,2013-05-18 12:02:00,
2013-05-18 07:08:00,63.1,60.7,29.86,ESE,107,0.0,4.0,92,0.00,,,0.00,Wunderground v.1.15,2013-05-18 12:08:00,
2013-05-18 07:14:00,63.5,60.8,29.86,ESE,107,1.0,4.0,91,0.00,,,0.00,Wunderground v.1.15,2013-05-18 12:14:00,
2013-05-18 07:20:00,63.9,61.2,29.86,ESE,107,0.0,4.0,91,0.00,,,0.00,Wunderground v.1.15,2013-05-18 12:20:00,
2013-05-18 07:26:00,64.3,61.3,29.87,ESE,108,0.0,4.0,90,0.00,,,0.00,Wunderground v.1.15,2013-05-18 12:26:00,
2013-05-18 07:32:00,64.5,61.5,29.87,ESE,108,1.0,4.0,90,0.00,,,0.00,Wunderground v.1.15,2013-05-18 12:32:00,
2013-05-18 07:37:00,64.6,61.3,29.87,ESE,108,1.0,4.0,89,0.00,,,0.00,Wunderground v.1.15,2013-05-18 12:37:00,
2013-05-18 07:43:00,64.8,61.5,29.87,ESE,108,1.0,4.0,89,0.00,,,0.00,Wunderground v.1.15,2013-05-18 12:43:00,
2013-05-18 07:49:00,64.9,61.6,29.87,ESE,108,1.0,4.0,89,0.00,,,0.00,Wunderground v.1.15,2013-05-18 12:49:00,
2013-05-18 07:55:00,65.0,61.4,29.87,ESE,108,1.0,4.0,88,0.00,,,0.00,Wunderground v.1.15,2013-05-18 12:55:00,
2013-05-18 08:00:00,65.1,61.5,29.87,ESE,107,1.0,4.0,88,0.00,,,0.00,Wunderground v.1.15,2013-05-18 13:00:00,
2013-05-18 08:06:00,65.2,61.9,29.87,ESE,106,2.0,4.0,89,0.00,,,0.00,Wunderground v.1.15,2013-05-18 13:06:00,
2013-05-18 08:11:00,65.3,61.7,29.86,East,93,2.0,4.0,88,0.00,,,0.00,Wunderground v.1.15,2013-05-18 13:11:00,
2013-05-18 08:17:00,65.4,62.1,29.86,East,95,2.0,4.0,89,0.00,,,0.00,Wunderground v.1.15,2013-05-18 13:17:00,
2013-05-18 08:22:00,65.6,62.3,29.87,East,94,2.0,4.0,89,0.00,,,0.00,Wunderground v.1.15,2013-05-18 13:22:00,
2013-05-18 08:27:00,65.8,62.1,29.87,East,94,2.0,4.0,88,0.00,,,0.00,Wunderground v.1.15,2013-05-18 13:27:00,
2013-05-18 08:33:00,66.0,62.7,29.87,East,94,2.0,4.0,89,0.00,,,0.00,Wunderground v.1.15,2013-05-18 13:33:00,
2013-05-18 08:38:00,66.3,62.6,29.87,East,94,1.0,4.0,88,0.00,,,0.00,Wunderground v.1.15,2013-05-18 13:38:00,
2013-05-18 08:43:00,66.5,62.8,29.87,ESE,119,2.0,4.0,88,0.00,,,0.00,Wunderground v.1.15,2013-05-18 13:43:00,
2013-05-18 08:49:00,66.9,63.2,29.87,ESE,120,2.0,4.0,88,0.00,,,0.00,Wunderground v.1.15,2013-05-18 13:49:00,
2013-05-18 08:54:00,67.4,63.4,29.87,ESE,118,1.0,4.0,87,0.00,,,0.00,Wunderground v.1.15,2013-05-18 13:54:00,
2013-05-18 08:59:00,67.9,63.6,29.87,ESE,118,1.0,4.0,86,0.00,,,0.00,Wunderground v.1.15,2013-05-18 13:59:00,
2013-05-18 09:05:00,68.4,63.7,29.86,ESE,108,1.0,4.0,85,0.00,,,0.00,Wunderground v.1.15,2013-05-18 14:05:00,
2013-05-18 09:10:00,68.9,64.2,29.86,ESE,107,1.0,4.0,85,0.00,,,0.00,Wunderground v.1.15,2013-05-18 14:10:00,
2013-05-18 09:15:00,69.5,64.5,29.86,ESE,110,1.0,4.0,84,0.00,,,0.00,Wunderground v.1.15,2013-05-18 14:15:00,
2013-05-18 09:21:00,70.1,64.7,29.87,ESE,111,2.0,4.0,83,0.00,,,0.00,Wunderground v.1.15,2013-05-18 14:21:00,
2013-05-18 09:26:00,70.8,65.7,29.86,ESE,102,2.0,4.0,84,0.00,,,0.00,Wunderground v.1.15,2013-05-18 14:26:00,
2013-05-18 09:31:00,71.4,65.6,29.86,East,100,1.0,4.0,82,0.00,,,0.00,Wunderground v.1.15,2013-05-18 14:31:00,
2013-05-18 09:37:00,72.0,65.5,29.86,East,96,2.0,5.0,80,0.00,,,0.00,Wunderground v.1.15,2013-05-18 14:37:00,
2013-05-18 09:42:00,72.5,66.0,29.86,East,96,1.0,4.0,80,0.00,,,0.00,Wunderground v.1.15,2013-05-18 14:42:00,
2013-05-18 09:47:00,73.2,65.9,29.86,ESE,112,1.0,4.0,78,0.00,,,0.00,Wunderground v.1.15,2013-05-18 14:47:00,
2013-05-18 09:53:00,73.8,66.1,29.86,East,99,2.0,4.0,77,0.00,,,0.00,Wunderground v.1.15,2013-05-18 14:53:00,
2013-05-18 09:58:00,74.3,66.2,29.86,SE,144,2.0,4.0,76,0.00,,,0.00,Wunderground v.1.15,2013-05-18 14:58:00,
2013-05-18 10:03:00,74.7,66.2,29.85,ESE,113,1.0,4.0,75,0.00,,,0.00,Wunderground v.1.15,2013-05-18 15:03:00,
2013-05-18 10:09:00,75.4,67.3,29.86,ESE,115,1.0,5.0,76,0.00,,,0.00,Wunderground v.1.15,2013-05-18 15:09:00,
2013-05-18 10:14:00,76.2,66.5,29.85,SE,133,1.0,4.0,72,0.00,,,0.00,Wunderground v.1.15,2013-05-18 15:14:00,
2013-05-18 10:20:00,76.8,66.3,29.85,ENE,63,2.0,6.0,70,0.00,,,0.00,Wunderground v.1.15,2013-05-18 15:20:00,
2013-05-18 10:26:00,77.1,66.6,29.85,NE,48,3.0,6.0,70,0.00,,,0.00,Wunderground v.1.15,2013-05-18 15:26:00,
2013-05-18 10:32:00,78.1,67.5,29.84,ESE,108,2.0,4.0,70,0.00,,,0.00,Wunderground v.1.15,2013-05-18 15:32:00,
2013-05-18 10:38:00,78.9,66.1,29.84,ENE,78,2.0,5.0,65,0.00,,,0.00,Wunderground v.1.15,2013-05-18 15:38:00,
2013-05-18 10:44:00,79.2,66.0,29.84,East,82,4.0,5.0,64,0.00,,,0.00,Wunderground v.1.15,2013-05-18 15:44:00,
2013-05-18 10:50:00,78.7,65.5,29.83,ENE,72,4.0,4.0,64,0.00,,,0.00,Wunderground v.1.15,2013-05-18 15:50:00,
2013-05-18 10:56:00,78.6,66.3,29.84,East,88,3.0,4.0,66,0.00,,,0.00,Wunderground v.1.15,2013-05-18 15:56:00,
2013-05-18 11:01:00,79.1,65.9,29.84,SSE,165,2.0,4.0,64,0.00,,,0.00,Wunderground v.1.15,2013-05-18 16:01:00,
2013-05-18 11:07:00,79.5,66.3,29.83,ESE,116,2.0,6.0,64,0.00,,,0.00,Wunderground v.1.15,2013-05-18 16:07:00,
2013-05-18 11:13:00,79.9,66.6,29.83,East,83,1.0,4.0,64,0.00,,,0.00,Wunderground v.1.15,2013-05-18 16:13:00,
2013-05-18 11:18:00,80.3,67.0,29.83,ESE,107,2.0,5.0,64,0.00,,,0.00,Wunderground v.1.15,2013-05-18 16:18:00,
2013-05-18 11:24:00,80.3,65.6,29.83,East,84,4.0,5.0,61,0.00,,,0.00,Wunderground v.1.15,2013-05-18 16:24:00,
2013-05-18 11:30:00,80.3,65.6,29.83,East,93,4.0,4.0,61,0.00,,,0.00,Wunderground v.1.15,2013-05-18 16:30:00,
2013-05-18 11:36:00,80.7,66.0,29.83,NE,44,4.0,10.0,61,0.00,,,0.00,Wunderground v.1.15,2013-05-18 16:36:00,
2013-05-18 11:42:00,81.6,66.4,29.83,ENE,68,3.0,4.0,60,0.00,,,0.00,Wunderground v.1.15,2013-05-18 16:42:00,
2013-05-18 11:47:00,81.5,65.8,29.83,ESE,118,3.0,5.0,59,0.00,,,0.00,Wunderground v.1.15,2013-05-18 16:47:00,
2013-05-18 11:53:00,80.7,65.0,29.83,SSE,163,4.0,7.0,59,0.00,,,0.00,Wunderground v.1.15,2013-05-18 16:53:00,
2013-05-18 11:59:00,79.8,64.2,29.83,East,93,4.0,7.0,59,0.00,,,0.00,Wunderground v.1.15,2013-05-18 16:59:00,
2013-05-18 12:05:00,79.7,65.1,29.83,ENE,78,2.0,4.0,61,0.00,,,0.00,Wunderground v.1.15,2013-05-18 17:05:00,
2013-05-18 12:10:00,79.8,65.2,29.83,East,93,2.0,2.0,61,0.00,,,0.00,Wunderground v.1.15,2013-05-18 17:10:00,
2013-05-18 12:16:00,80.3,65.1,29.82,East,97,2.0,5.0,60,0.00,,,0.00,Wunderground v.1.15,2013-05-18 17:16:00,
2013-05-18 12:22:00,80.1,64.5,29.82,East,90,3.0,4.0,59,0.00,,,0.00,Wunderground v.1.15,2013-05-18 17:22:00,
2013-05-18 12:28:00,79.9,64.8,29.82,East,94,2.0,5.0,60,0.00,,,0.00,Wunderground v.1.15,2013-05-18 17:28:00,
2013-05-18 12:33:00,80.0,64.9,29.82,NNE,16,3.0,6.0,60,0.00,,,0.00,Wunderground v.1.15,2013-05-18 17:33:00,
2013-05-18 12:38:00,80.0,64.9,29.82,ENE,64,3.0,6.0,60,0.00,,,0.00,Wunderground v.1.15,2013-05-18 17:38:00,
2013-05-18 12:44:00,79.7,64.6,29.82,East,94,3.0,4.0,60,0.00,,,0.00,Wunderground v.1.15,2013-05-18 17:44:00,
2013-05-18 12:49:00,79.9,65.2,29.82,East,92,2.0,5.0,61,0.00,,,0.00,Wunderground v.1.15,2013-05-18 17:49:00,
2013-05-18 12:55:00,80.3,65.1,29.82,East,90,2.0,4.0,60,0.00,,,0.00,Wunderground v.1.15,2013-05-18 17:55:00,
2013-05-18 13:00:00,80.3,65.6,29.82,East,99,2.0,4.0,61,0.00,,,0.00,Wunderground v.1.15,2013-05-18 18:00:00,
2013-05-18 13:06:00,80.8,66.1,29.82,East,95,3.0,4.0,61,0.00,,,0.00,Wunderground v.1.15,2013-05-18 18:06:00,
2013-05-18 13:12:00,80.8,65.1,29.81,East,82,3.0,4.0,59,0.00,,,0.00,Wunderground v.1.15,2013-05-18 18:12:00,
2013-05-18 13:17:00,80.9,65.2,29.81,East,87,2.0,4.0,59,0.00,,,0.00,Wunderground v.1.15,2013-05-18 18:17:00,
2013-05-18 13:22:00,80.9,66.2,29.81,NE,46,2.0,4.0,61,0.00,,,0.00,Wunderground v.1.15,2013-05-18 18:22:00,
2013-05-18 13:28:00,81.6,65.4,29.80,East,86,3.0,5.0,58,0.00,,,0.00,Wunderground v.1.15,2013-05-18 18:28:00,
2013-05-18 13:33:00,82.3,66.5,29.80,ENE,66,3.0,4.0,59,0.00,,,0.00,Wunderground v.1.15,2013-05-18 18:33:00,
2013-05-18 13:39:00,83.1,66.3,29.80,ENE,76,2.0,4.0,57,0.00,,,0.00,Wunderground v.1.15,2013-05-18 18:39:00,
2013-05-18 13:45:00,83.4,66.6,29.79,NE,34,2.0,5.0,57,0.00,,,0.00,Wunderground v.1.15,2013-05-18 18:45:00,
2013-05-18 13:51:00,83.6,65.7,29.79,NE,53,3.0,10.0,55,0.00,,,0.00,Wunderground v.1.15,2013-05-18 18:51:00,
2013-05-18 13:57:00,82.9,66.1,29.79,ENE,66,4.0,10.0,57,0.00,,,0.00,Wunderground v.1.15,2013-05-18 18:57:00,
2013-05-18 14:02:00,82.5,65.2,29.78,ESE,107,4.0,6.0,56,0.00,,,0.00,Wunderground v.1.15,2013-05-18 19:02:00,
2013-05-18 14:07:00,82.0,64.8,29.79,ESE,123,5.0,8.0,56,0.00,,,0.00,Wunderground v.1.15,2013-05-18 19:07:00,
2013-05-18 14:12:00,82.3,65.0,29.78,East,85,4.0,4.0,56,0.00,,,0.00,Wunderground v.1.15,2013-05-18 19:12:00,
2013-05-18 14:17:00,82.5,66.2,29.78,East,95,3.0,5.0,58,0.00,,,0.00,Wunderground v.1.15,2013-05-18 19:17:00,
2013-05-18 14:23:00,82.4,65.1,29.78,NNE,24,4.0,4.0,56,0.00,,,0.00,Wunderground v.1.15,2013-05-18 19:23:00,
2013-05-18 14:29:00,82.2,66.4,29.77,ESE,114,4.0,7.0,59,0.00,,,0.00,Wunderground v.1.15,2013-05-18 19:29:00,
2013-05-18 14:34:00,82.2,65.4,29.77,ENE,60,3.0,4.0,57,0.00,,,0.00,Wunderground v.1.15,2013-05-18 19:34:00,
2013-05-18 14:40:00,81.5,65.8,29.77,ESE,111,4.0,5.0,59,0.00,,,0.00,Wunderground v.1.15,2013-05-18 19:40:00,
2013-05-18 14:46:00,81.4,65.2,29.77,ENE,71,5.0,6.0,58,0.00,,,0.00,Wunderground v.1.15,2013-05-18 19:46:00,
2013-05-18 14:51:00,81.4,65.2,29.77,NNE,24,4.0,5.0,58,0.00,,,0.00,Wunderground v.1.15,2013-05-18 19:51:00,
2013-05-18 14:57:00,81.7,65.0,29.77,ENE,66,3.0,6.0,57,0.00,,,0.00,Wunderground v.1.15,2013-05-18 19:57:00,
2013-05-18 15:02:00,82.1,66.4,29.76,East,98,4.0,4.0,59,0.00,,,0.00,Wunderground v.1.15,2013-05-18 20:02:00,
2013-05-18 15:08:00,82.0,65.8,29.76,East,79,4.0,11.0,58,0.00,,,0.00,Wunderground v.1.15,2013-05-18 20:08:00,
2013-05-18 15:14:00,81.9,65.2,29.76,SE,146,4.0,6.0,57,0.00,,,0.00,Wunderground v.1.15,2013-05-18 20:14:00,
2013-05-18 15:19:00,81.8,64.6,29.76,SSE,148,4.0,6.0,56,0.00,,,0.00,Wunderground v.1.15,2013-05-18 20:19:00,
2013-05-18 15:25:00,81.9,64.7,29.76,East,88,5.0,10.0,56,0.00,,,0.00,Wunderground v.1.15,2013-05-18 20:25:00,
2013-05-18 15:31:00,82.1,66.4,29.76,ENE,61,4.0,7.0,59,0.00,,,0.00,Wunderground v.1.15,2013-05-18 20:31:00,
2013-05-18 15:37:00,82.3,65.0,29.76,East,86,5.0,10.0,56,0.00,,,0.00,Wunderground v.1.15,2013-05-18 20:37:00,
2013-05-18 15:42:00,82.1,64.8,29.76,ENE,57,4.0,4.0,56,0.00,,,0.00,Wunderground v.1.15,2013-05-18 20:42:00,
2013-05-18 15:48:00,81.9,65.7,29.76,SE,139,3.0,8.0,58,0.00,,,0.00,Wunderground v.1.15,2013-05-18 20:48:00,
2013-05-18 15:54:00,82.0,65.3,29.76,East,88,4.0,10.0,57,0.00,,,0.00,Wunderground v.1.15,2013-05-18 20:54:00,
2013-05-18 16:00:00,81.8,65.6,29.76,East,95,4.0,4.0,58,0.00,,,0.00,Wunderground v.1.15,2013-05-18 21:00:00,
2013-05-18 16:05:00,81.6,65.4,29.76,ESE,123,3.0,5.0,58,0.00,,,0.00,Wunderground v.1.15,2013-05-18 21:05:00,
2013-05-18 16:11:00,81.5,65.3,29.76,East,98,4.0,6.0,58,0.00,,,0.00,Wunderground v.1.15,2013-05-18 21:11:00,
2013-05-18 16:17:00,81.2,65.0,29.76,ESE,103,4.0,6.0,58,0.00,,,0.00,Wunderground v.1.15,2013-05-18 21:17:00,
2013-05-18 16:23:00,81.5,65.3,29.75,East,91,4.0,5.0,58,0.00,,,0.00,Wunderground v.1.15,2013-05-18 21:23:00,
2013-05-18 16:29:00,81.5,65.8,29.75,ENE,74,5.0,10.0,59,0.00,,,0.00,Wunderground v.1.15,2013-05-18 21:29:00,
2013-05-18 16:35:00,81.8,65.6,29.75,ESE,103,4.0,7.0,58,0.00,,,0.00,Wunderground v.1.15,2013-05-18 21:35:00,
2013-05-18 16:41:00,81.7,66.0,29.75,ENE,78,4.0,4.0,59,0.00,,,0.00,Wunderground v.1.15,2013-05-18 21:41:00,
2013-05-18 16:47:00,81.8,65.1,29.76,East,84,3.0,6.0,57,0.00,,,0.00,Wunderground v.1.15,2013-05-18 21:47:00,
2013-05-18 16:53:00,81.7,65.5,29.76,ENE,71,4.0,6.0,58,0.00,,,0.00,Wunderground v.1.15,2013-05-18 21:53:00,
2013-05-18 16:59:00,81.6,65.9,29.76,NE,34,4.0,10.0,59,0.00,,,0.00,Wunderground v.1.15,2013-05-18 21:59:00,
2013-05-18 17:05:00,81.4,66.2,29.76,East,81,3.0,4.0,60,0.00,,,0.00,Wunderground v.1.15,2013-05-18 22:05:00,
2013-05-18 17:11:00,81.4,66.2,29.77,East,99,2.0,4.0,60,0.00,,,0.00,Wunderground v.1.15,2013-05-18 22:11:00,
2013-05-18 17:17:00,81.4,65.7,29.77,East,96,2.0,7.0,59,0.00,,,0.00,Wunderground v.1.15,2013-05-18 22:17:00,
2013-05-18 17:23:00,81.4,65.7,29.77,ESE,122,2.0,4.0,59,0.00,,,0.00,Wunderground v.1.15,2013-05-18 22:23:00,
2013-05-18 17:28:00,81.4,66.2,29.77,East,81,2.0,4.0,60,0.00,,,0.00,Wunderground v.1.15,2013-05-18 22:28:00,
2013-05-18 17:33:00,81.4,66.2,29.77,ESE,116,2.0,4.0,60,0.00,,,0.00,Wunderground v.1.15,2013-05-18 22:33:00,
2013-05-18 17:39:00,81.3,66.1,29.76,East,96,3.0,5.0,60,0.00,,,0.00,Wunderground v.1.15,2013-05-18 22:39:00,
2013-05-18 17:44:00,81.2,66.5,29.77,East,92,3.0,4.0,61,0.00,,,0.00,Wunderground v.1.15,2013-05-18 22:44:00,
2013-05-18 17:49:00,81.2,66.5,29.77,East,92,3.0,7.0,61,0.00,,,0.00,Wunderground v.1.15,2013-05-18 22:49:00,
2013-05-18 17:55:00,81.1,66.8,29.76,ESE,106,2.0,4.0,62,0.00,,,0.00,Wunderground v.1.15,2013-05-18 22:55:00,
2013-05-18 18:00:00,81.2,66.9,29.76,East,92,1.0,4.0,62,0.00,,,0.00,Wunderground v.1.15,2013-05-18 23:00:00,
2013-05-18 18:06:00,81.2,66.0,29.76,East,100,2.0,5.0,60,0.00,,,0.00,Wunderground v.1.15,2013-05-18 23:06:00,
2013-05-18 18:12:00,81.0,66.3,29.75,East,84,3.0,4.0,61,0.00,,,0.00,Wunderground v.1.15,2013-05-18 23:12:00,
2013-05-18 18:18:00,81.0,66.3,29.75,ESE,109,2.0,5.0,61,0.00,,,0.00,Wunderground v.1.15,2013-05-18 23:18:00,
2013-05-18 18:24:00,81.3,66.6,29.75,East,81,2.0,6.0,61,0.00,,,0.00,Wunderground v.1.15,2013-05-18 23:24:00,
2013-05-18 18:30:00,81.2,66.5,29.75,ESE,113,3.0,3.0,61,0.00,,,0.00,Wunderground v.1.15,2013-05-18 23:30:00,
2013-05-18 18:36:00,81.2,66.0,29.75,ESE,111,3.0,4.0,60,0.00,,,0.00,Wunderground v.1.15,2013-05-18 23:36:00,
2013-05-18 18:42:00,81.4,66.2,29.75,ESE,111,2.0,6.0,60,0.00,,,0.00,Wunderground v.1.15,2013-05-18 23:42:00,
2013-05-18 18:48:00,81.3,66.1,29.74,SE,134,3.0,6.0,60,0.00,,,0.00,Wunderground v.1.15,2013-05-18 23:48:00,
2013-05-18 18:53:00,81.1,66.4,29.74,East,87,3.0,4.0,61,0.00,,,0.00,Wunderground v.1.15,2013-05-18 23:53:00,
2013-05-18 18:59:00,80.9,66.2,29.74,East,79,3.0,6.0,61,0.00,,,0.00,Wunderground v.1.15,2013-05-18 23:59:00,
2013-05-18 19:04:00,80.7,66.0,29.74,SE,144,3.0,5.0,61,0.00,,,0.00,Wunderground v.1.15,2013-05-19 00:04:00,
2013-05-18 19:10:00,80.5,65.8,29.74,ESE,113,2.0,2.0,61,0.00,,,0.00,Wunderground v.1.15,2013-05-19 00:10:00,
2013-05-18 19:16:00,80.3,65.6,29.74,ESE,106,3.0,4.0,61,0.00,,,0.00,Wunderground v.1.15,2013-05-19 00:16:00,
2013-05-18 19:22:00,80.1,65.4,29.74,SE,136,3.0,4.0,61,0.00,,,0.00,Wunderground v.1.15,2013-05-19 00:22:00,
2013-05-18 19:28:00,79.8,65.6,29.73,ESE,117,3.0,4.0,62,0.00,,,0.00,Wunderground v.1.15,2013-05-19 00:28:00,
2013-05-18 19:34:00,79.7,65.5,29.73,SSE,149,2.0,5.0,62,0.00,,,0.00,Wunderground v.1.15,2013-05-19 00:34:00,
2013-05-18 19:39:00,79.6,65.4,29.72,ESE,106,3.0,5.0,62,0.00,,,0.00,Wunderground v.1.15,2013-05-19 00:39:00,
2013-05-18 19:45:00,79.6,65.4,29.72,SSE,165,3.0,4.0,62,0.00,,,0.00,Wunderground v.1.15,2013-05-19 00:45:00,
2013-05-18 19:51:00,79.5,65.8,29.72,ESE,121,3.0,4.0,63,0.00,,,0.00,Wunderground v.1.15,2013-05-19 00:51:00,
2013-05-18 19:57:00,79.3,66.1,29.71,East,99,3.0,4.0,64,0.00,,,0.00,Wunderground v.1.15,2013-05-19 00:57:00,
2013-05-18 20:02:00,79.1,65.9,29.71,ESE,103,2.0,4.0,64,0.00,,,0.00,Wunderground v.1.15,2013-05-19 01:02:00,
2013-05-18 20:08:00,78.7,65.5,29.71,ESE,117,2.0,5.0,64,0.00,,,0.00,Wunderground v.1.15,2013-05-19 01:08:00,
2013-05-18 20:14:00,78.6,65.8,29.70,SE,136,3.0,4.0,65,0.00,,,0.00,Wunderground v.1.15,2013-05-19 01:14:00,
2013-05-18 20:20:00,78.3,65.6,29.71,SSE,159,2.0,4.0,65,0.00,,,0.00,Wunderground v.1.15,2013-05-19 01:20:00,
2013-05-18 20:25:00,78.1,65.8,29.71,SSE,161,2.0,4.0,66,0.00,,,0.00,Wunderground v.1.15,2013-05-19 01:25:00,
2013-05-18 20:31:00,77.9,66.1,29.71,ESE,107,3.0,4.0,67,0.00,,,0.00,Wunderground v.1.15,2013-05-19 01:31:00,
2013-05-18 20:37:00,77.6,65.8,29.71,ESE,113,2.0,4.0,67,0.00,,,0.00,Wunderground v.1.15,2013-05-19 01:37:00,
2013-05-18 20:43:00,77.3,65.9,29.71,ESE,115,2.0,4.0,68,0.00,,,0.00,Wunderground v.1.15,2013-05-19 01:43:00,
2013-05-18 20:49:00,77.0,65.6,29.70,ESE,109,3.0,5.0,68,0.00,,,0.00,Wunderground v.1.15,2013-05-19 01:49:00,
2013-05-18 20:55:00,76.9,65.5,29.70,SSE,157,4.0,9.0,68,0.00,,,0.00,Wunderground v.1.15,2013-05-19 01:55:00,
2013-05-18 21:01:00,76.7,65.8,29.70,ESE,122,3.0,5.0,69,0.00,,,0.00,Wunderground v.1.15,2013-05-19 02:01:00,
2013-05-18 21:07:00,76.5,65.6,29.70,NE,44,4.0,5.0,69,0.00,,,0.00,Wunderground v.1.15,2013-05-19 02:07:00,
2013-05-18 21:12:00,76.4,65.5,29.71,SE,139,4.0,4.0,69,0.00,,,0.00,Wunderground v.1.15,2013-05-19 02:12:00,
2013-05-18 21:18:00,76.2,65.7,29.71,SE,126,4.0,8.0,70,0.00,,,0.00,Wunderground v.1.15,2013-05-19 02:18:00,
2013-05-18 21:24:00,76.1,65.6,29.72,SE,136,3.0,4.0,70,0.00,,,0.00,Wunderground v.1.15,2013-05-19 02:24:00,
2013-05-18 21:29:00,75.9,65.8,29.72,SE,127,2.0,4.0,71,0.00,,,0.00,Wunderground v.1.15,2013-05-19 02:29:00,
2013-05-18 21:35:00,75.7,65.6,29.72,South,170,3.0,6.0,71,0.00,,,0.00,Wunderground v.1.15,2013-05-19 02:35:00,
2013-05-18 21:40:00,75.6,65.5,29.72,ESE,104,3.0,3.0,71,0.00,,,0.00,Wunderground v.1.15,2013-05-19 02:40:00,
2013-05-18 21:46:00,75.4,65.7,29.72,SE,140,3.0,4.0,72,0.00,,,0.00,Wunderground v.1.15,2013-05-19 02:46:00,
2013-05-18 21:52:00,75.2,65.6,29.72,ESE,114,3.0,5.0,72,0.00,,,0.00,Wunderground v.1.15,2013-05-19 02:52:00,
2013-05-18 21:58:00,75.1,65.9,29.71,ESE,111,3.0,5.0,73,0.00,,,0.00,Wunderground v.1.15,2013-05-19 02:58:00,
2013-05-18 22:04:00,75.0,65.8,29.72,SSE,150,3.0,4.0,73,0.00,,,0.00,Wunderground v.1.15,2013-05-19 03:04:00,
2013-05-18 22:10:00,74.9,65.7,29.71,SE,142,3.0,4.0,73,0.00,,,0.00,Wunderground v.1.15,2013-05-19 03:10:00,
2013-05-18 22:16:00,74.9,65.7,29.71,ESE,117,3.0,7.0,73,0.00,,,0.00,Wunderground v.1.15,2013-05-19 03:16:00,
2013-05-18 22:22:00,74.9,65.7,29.71,East,84,4.0,4.0,73,0.00,,,0.00,Wunderground v.1.15,2013-05-19 03:22:00,
2013-05-18 22:28:00,74.8,65.6,29.71,ESE,113,3.0,4.0,73,0.00,,,0.00,Wunderground v.1.15,2013-05-19 03:28:00,
2013-05-18 22:33:00,74.6,65.4,29.70,SE,126,3.0,8.0,73,0.00,,,0.00,Wunderground v.1.15,2013-05-19 03:33:00,
2013-05-18 22:39:00,74.4,65.6,29.70,SE,134,3.0,8.0,74,0.00,,,0.00,Wunderground v.1.15,2013-05-19 03:39:00,
2013-05-18 22:44:00,74.2,65.4,29.70,SE,132,3.0,5.0,74,0.00,,,0.00,Wunderground v.1.15,2013-05-19 03:44:00,
2013-05-18 22:50:00,73.9,65.5,29.70,SE,143,3.0,3.0,75,0.00,,,0.00,Wunderground v.1.15,2013-05-19 03:50:00,
2013-05-18 22:56:00,73.7,65.3,29.69,ESE,119,3.0,6.0,75,0.00,,,0.00,Wunderground v.1.15,2013-05-19 03:56:00,
2013-05-18 23:01:00,73.5,65.5,29.69,SE,133,3.0,4.0,76,0.00,,,0.00,Wunderground v.1.15,2013-05-19 04:01:00,
2013-05-18 23:02:00,73.5,65.5,29.69,SE,133,3.0,4.0,76,0.00,,,0.00,Wunderground v.1.15,2013-05-19 04:02:00,
2013-05-18 23:05:00,73.3,65.3,29.68,ESE,102,3.0,4.0,76,0.00,,,0.00,Wunderground v.1.15,2013-05-19 04:05:00,
2013-05-18 23:06:00,73.3,65.3,29.68,ESE,102,3.0,4.0,76,0.00,,,0.00,Wunderground v.1.15,2013-05-19 04:06:00,
2013-05-18 23:08:00,73.2,65.2,29.68,East,101,3.0,8.0,76,0.00,,,0.00,Wunderground v.1.15,2013-05-19 04:08:00,
2013-05-18 23:14:00,73.1,65.1,29.68,South,187,4.0,6.0,76,0.00,,,0.00,Wunderground v.1.15,2013-05-19 04:14:00,
2013-05-18 23:20:00,73.0,65.4,29.69,SE,132,4.0,4.0,77,0.00,,,0.00,Wunderground v.1.15,2013-05-19 04:20:00,
2013-05-18 23:26:00,72.8,65.2,29.68,SE,128,4.0,6.0,77,0.00,,,0.00,Wunderground v.1.15,2013-05-19 04:26:00,
2013-05-18 23:32:00,72.8,65.2,29.67,ESE,116,5.0,6.0,77,0.00,,,0.00,Wunderground v.1.15,2013-05-19 04:32:00,
2013-05-18 23:38:00,72.6,65.0,29.68,SSE,155,4.0,6.0,77,0.00,,,0.00,Wunderground v.1.15,2013-05-19 04:38:00,
2013-05-18 23:43:00,72.5,65.2,29.68,ESE,123,4.0,4.0,78,0.00,,,0.00,Wunderground v.1.15,2013-05-19 04:43:00,
2013-05-18 23:49:00,72.4,65.2,29.68,SSE,164,4.0,5.0,78,0.00,,,0.00,Wunderground v.1.15,2013-05-19 04:49:00,
2013-05-18 23:55:00,72.3,65.1,29.68,ESE,115,4.0,6.0,78,0.00,,,0.00,Wunderground v.1.15,2013-05-19 04:55:00,